GW5434 Weather Reports


time (UTC)temp
F
wind
direction
speed
knots
gust
knots
rain 1hr
in
rain 24hr
in
rain mn
in
humidity
%
barometer
mb
20260504004523 64 279 0.0 0.0 0.00 0.00 0.00 74 1018.3
20260504003023 68 279 0.0 0.0 0.00 0.00 0.00 69 1018.3
20260504001526 72 279 0.0 0.0 0.00 0.00 0.00 61 1018.1
20260504000016 75 279 0.0 0.0 0.00 0.00 0.00 54 1018.1
20260503234519 77 280 0.0 0.9 0.00 0.00 0.00 50 1018.2
20260503233021 77 269 0.9 1.7 0.00 0.00 0.00 37 1018.2
20260503231504 77 264 0.9 1.7 0.00 0.00 0.00 36 1018.3
20260503230003 77 298 0.9 4.3 0.00 0.00 0.00 36 1018.3
20260503224503 77 236 3.5 7.0 0.00 0.00 0.00 37 1018.4
20260503223005 78 201 0.0 2.6 0.00 0.00 0.00 35 1018.3
20260503221503 76 314 1.7 5.2 0.00 0.00 0.00 35 1018.4
20260503220004 77 286 1.7 5.2 0.00 0.00 0.00 35 1018.6
20260503214507 76 296 3.5 7.0 0.00 0.00 0.00 35 1018.8
20260503213004 76 267 4.3 7.8 0.00 0.00 0.00 35 1019.1
20260503211504 77 273 3.5 7.0 0.00 0.00 0.00 36 1019.1
20260503210008 77 294 2.6 5.2 0.00 0.00 0.00 35 1019.3
20260503204506 75 273 1.7 7.0 0.00 0.00 0.00 38 1019.5
20260503203005 76 7 1.7 6.1 0.00 0.00 0.00 39 1019.6
20260503201508 75 82 1.7 7.8 0.00 0.00 0.00 38 1019.9
20260503200004 76 302 5.2 7.8 0.00 0.00 0.00 37 1020.2
20260503194506 76 165 1.7 2.6 0.00 0.00 0.00 37 1020.5
20260503193002 75 269 2.6 5.2 0.00 0.00 0.00 37 1020.8
20260503191507 75 155 0.9 6.1 0.00 0.00 0.00 38 1020.9
20260503190017 75 224 0.9 7.0 0.00 0.00 0.00 40 1021.3
20260503184508 74 302 1.7 7.8 0.00 0.00 0.00 37 1021.5
20260503183014 76 270 2.6 7.8 0.00 0.00 0.00 39 1021.6
20260503181508 74 300 1.7 7.0 0.00 0.00 0.00 40 1021.7
20260503180011 74 353 3.5 7.0 0.00 0.00 0.00 38 1021.9
20260503174509 73 253 3.5 7.8 0.00 0.00 0.00 39 1022.0
20260503173007 72 315 4.3 7.0 0.00 0.00 0.00 38 1022.2
20260503171508 72 330 5.2 7.0 0.00 0.00 0.00 38 1022.4
20260503081535 44 109 0.0 0.0 0.00 0.18 0.00 95 1020.5
20260503071520 45 109 0.0 0.0 0.00 0.24 0.00 94 1020.0
20260503054530 46 108 0.0 0.0 0.00 0.29 0.00 93 1020.0
20260503053025 47 109 0.0 0.0 0.00 0.29 0.00 93 1020.1
20260503051513 47 109 0.0 0.0 0.00 0.29 0.00 93 1020.1
20260503050003 47 109 0.0 0.0 0.00 0.30 0.00 92 1020.1
20260503044507 47 109 0.0 0.0 0.00 0.31 0.30 92 1020.2
20260503043008 48 109 0.0 0.0 0.00 0.31 0.30 92 1020.1
20260503041516 48 109 0.0 0.0 0.00 0.32 0.30 92 1020.1
20260503040019 48 109 0.0 0.0 0.00 0.32 0.30 91 1020.1
20260503034520 49 109 0.0 0.0 0.00 0.33 0.30 91 1019.9
20260503033005 49 109 0.0 0.0 0.00 0.35 0.30 90 1019.8
20260503031507 50 109 0.0 0.0 0.00 0.38 0.30 90 1019.7
20260503030014 50 99 0.0 0.9 0.00 0.40 0.30 89 1019.6
20260503024520 51 123 0.0 0.0 0.00 0.41 0.30 88 1019.5
20260503023022 52 123 0.0 0.0 0.00 0.42 0.30 87 1019.2
20260503021503 52 123 0.0 0.9 0.00 0.42 0.30 86 1019.0
20260503020011 53 1 0.0 0.0 0.00 0.42 0.30 84 1018.8
20260503014513 54 353 0.0 0.0 0.00 0.43 0.30 82 1018.8
20260503013020 55 353 0.0 0.0 0.00 0.46 0.30 80 1018.7
20260503011524 57 353 0.0 0.0 0.00 0.48 0.30 76 1018.4
20260503010004 59 353 0.0 0.0 0.00 0.48 0.30 74 1018.1